Location: Esp�n
(42.4593°N, 0.2047°W)
Time: 21:42:33
(UTC+00:00)

Meteor 1-29 - Pass Details

Date: 07 June 2020
Orbit: 438 x 461 km, 97.7° (Epoch: 04 July)

Event Time Altitude Azimuth Distance (km) Brightness Sun altitude
Rises 00:53:34 0° 9° (N) 2,445 8.1 -23.6°
Reaches altitude 10° 00:55:37 10° 7° (N) 1,566 6.7 -23.5°
Enters shadow 00:58:11 48° 347° (NNW) 588 3.7 -23.4°
